SL-6 R/B(2), 12680

Orbit data source: Space-Track

SL-6 R/B(2), 12680 is space debris in HEO originally from a launch on Tue, 04 Aug 1981 UTC launched from the Plesetsk Missile And Space Complex (PKMTR). Debris objects in space refer to the collection of defunct objects orbiting the Earth. Examples of debris include non-operational satellites, rocket bodies, and fragments generated from explosions, collisions, or faulty payload assembly.

Loading next visibility...
SL-6 R/B(2) details
Identifier
12680, 1981-071D
Orbit
HEO
Last TLE update15 hours ago
Origin
Flag of CISRVSN (CIS)
ManufacturerNPO Energiya
MissionSpacecraft
Bus & MotorBLOK-L, Unknown motor
Mass~900 kg wet, ~900 kg dry
Launch date (UTC)
1981-08-04 (43 years ago)
Launch vehicleUnknown
Launch site
Plesetsk Missile And Space Complex (PKMTR)
Object type
Payload
Rocket body
Debris
Shape & HBRCyl, 2.7 m
Radar Cross Section7.756 m², Large (>1 m²)

Expand to show TLE details & history

TLE from 15 hours ago
0 SL-6 R/B(2)
1 12680U 81071D   24361.34439582  .00000452  00000-0  00000-0 0  9999
2 12680  65.7628 103.9453 6813394  23.4327 356.5317  1.99208696234035
Epoch: 2024-12-26T08:15Z
Definitive object data (Epoch: 2024-12-26T08:15:55.798Z)
Latitude-0.00033°
Longitude-115.33568°
Altitude2,405.408 km
Speed8.708 km/s
True Right ascension06h 55m 53s
True Declination0° 00' 01"
Sunlit
Object was in full shadow at TLE epoch
Visualization TLE readout
Latitude5.10892°
Longitude62.31019°
Altitude29,002.709 km
Speed2.756 km/s
Apparent Right ascension18h 17m 29s
Apparent Declination-1° 36' 32"
Sunlit
Object is in daylight
Visualization observer readout
Local Sidereal Time22:37:55
Azimuth252.177° W
Elevation17.741°
Doppler factor1
Orbital elements
Apogee altitude38,479.359 km
Perigee altitude2,123.607 km
Semi-major axis26,679.62 km
Eccentricity0.6813394
Inclination65.7628°
RAAN103.9453°
Arg. of periapsis23.4327°
True anomaly335.61087°
Mean anomaly356.5317°
Eccentric anomaly349.2506°
Mean motion0.49805 °/min
BSTARUnknown
Orbital period722.82 mins
Loading maneuver chart data...
Loading historical data...
Loading historical data...
Loading historical data...
Loading historical data...
Loading historical data...
Loading historical data...
Loading historical data...

SL-6 R/B(2) Visibility forecast

Observer location: undefined°, undefined

Span
Click to sort rows by Start time (UTC) header in descending order
Start Az.
Max El. time (UTC)
Max El. Az.
Max El.
End time (UTC)
End Az.
33 mins2024-12-26 23:14:37.986Z252.158° W2024-12-26 23:14:37.986Z252.158° W16.939°2024-12-26 23:47:37.986Z251.847° W
25 mins2024-12-27 08:25:37.986Z196.705° SSW2024-12-27 08:33:37.986Z117.381° SE43.955°2024-12-27 08:50:37.986Z32.226° NE
131 mins2024-12-27 21:03:37.986Z321.425° NNW2024-12-27 21:41:37.986Z278.874° WNW29.906°2024-12-27 23:14:37.986Z254.281° W
|